星链-1871 (STARLINK-1871 )

导读 | 豆包AI

STARLINK-1871是美国SpaceX公司星链(Starlink)星座中的一颗互联网通信卫星,于2020年11月25日发射入轨,属于星链星座第一阶段组网卫星。星链星座旨在为全球提供低延迟、高速率的宽带互联网服务,该卫星运行在近地轨道,通过星间链路与地面站协同工作,为地面用户提供天基互联网接入服务。作为星链大规模组网的组成部分,它承担着覆盖全球偏远地区、补充网络基础设施的任务,支撑星座全球覆盖的组网目标。

基本信息
目录编号:
47157
目录名称:
STARLINK-1871
国际标识:
2020-088AM
轨道中心:
EARTH
卫星名称:
星链-1871
卫星全名:
星链-1871 (STARLINK-1871 )
卫星状态:
在轨 (已飞行1935 天)
发射日期:
2020-11-25 UTC
国别 :
美国 (US)
星等 :
--
轨道信息
数据来源 国际轨道数据
星历时间: 2026-03-14T07:03:55+0800
11小时前
查看轨道信息
半长轴: 6853.358km
偏心率: 0.0001248
轨道倾角: 53.160°
近地点辐角 86.534°
升交点赤经 276.529°
平近点角 273.580°
近地点: 474.365km
远地点: 476.077km
周期: 94.105分钟
每日圈数: 15.301983
详细信息
固有亮度:
5
最大亮度:
2.5
卫星平台:
Starlink V1.0
覆盖范围:
全球
运营商:
太空探索技术公司
运营商所在国:
美国
制造商(研发单位):
太空探索技术公司
制造商所在国:
美国
使用方式:
暂无
卫星简介
星链(Starlink)计划是由太空探索技术公司(SpaceX)提出的一个巨型低轨卫星互联网星座项目,计划在2019年至2024年间在太空搭建由约1.2万颗卫星组成的“星链”网络,其中1584颗将部署在地球上空550千米处的近地轨道,并从2020年开始工作。该卫星仍在工作。
2D轨道图
3D轨道图
轨道高度分析图
轨道倾角分析图
轨道综合分析图
查看轨道综合分析图